CW8164 Weather Reports


Display with metric or nautical units.
time (UTC)temp
F
wind
direction
speed
MPH
gust
MPH
rain 1hr
in
rain 24hr
in
rain mn
in
humidity
%
barometer
mb
20260504225403 74 145 0.0 3.0 0.00 0.00 0.00 55 1010.8
20260504224903 74 266 1.0 3.0 0.00 0.00 0.00 57 1010.9
20260504224403 74 272 2.0 3.0 0.00 0.00 0.00 58 1010.9
20260504223903 73 52 1.0 5.0 0.00 0.00 0.00 58 1011.0
20260504223403 73 239 1.0 5.0 0.00 0.00 0.00 56 1011.1
20260504222903 72 314 0.0 3.0 0.00 0.00 0.00 59 1011.1
20260504222403 72 251 1.0 6.0 0.00 0.00 0.00 58 1011.2
20260504221903 71 295 2.0 6.0 0.00 0.00 0.00 57 1011.3
20260504221403 71 225 2.0 6.0 0.00 0.00 0.00 57 1011.3
20260504220902 71 224 1.0 5.0 0.00 0.00 0.00 58 1011.4
20260504220403 71 85 2.0 6.0 0.00 0.00 0.00 59 1011.5
20260504215903 71 185 3.0 6.0 0.00 0.00 0.00 58 1011.6
20260504215403 71 205 2.0 5.0 0.00 0.00 0.00 61 1011.6
20260504214903 71 341 1.0 6.0 0.00 0.00 0.00 64 1011.7
20260504214403 70 221 1.0 6.0 0.00 0.00 0.00 63 1011.7
20260504213403 69 130 2.0 6.0 0.00 0.00 0.00 62 1011.8
20260504212903 69 171 1.0 6.0 0.00 0.00 0.00 61 1011.9
20260504212403 69 120 2.0 6.0 0.00 0.00 0.00 61 1011.9
20260504211903 69 276 2.0 5.0 0.00 0.00 0.00 61 1012.0
20260504211403 69 244 2.0 7.0 0.00 0.00 0.00 63 1012.1
20260504210903 68 257 3.0 7.0 0.00 0.00 0.00 62 1012.1
20260504210403 68 294 2.0 7.0 0.00 0.00 0.00 67 1012.3
20260504205903 68 246 1.0 6.0 0.00 0.00 0.00 64 1012.2
20260504205403 68 286 2.0 6.0 0.00 0.00 0.00 65 1012.3
20260504204903 68 355 2.0 6.0 0.00 0.00 0.00 66 1012.4
20260504203904 67 226 2.0 6.0 0.00 0.00 0.00 65 1012.6
20260504203403 67 230 1.0 6.0 0.00 0.00 0.00 65 1012.6
20260504202904 67 175 1.0 6.0 0.00 0.00 0.00 64 1012.8
20260504202403 67 228 3.0 6.0 0.00 0.00 0.00 66 1012.7
20260504201903 67 288 1.0 6.0 0.00 0.00 0.00 69 1012.6
20260504200903 66 249 1.0 6.0 0.00 0.00 0.00 69 1012.8
20260504200404 65 331 0.0 7.0 0.00 0.00 0.00 68 1012.9
20260504195903 66 221 3.0 7.0 0.00 0.00 0.00 68 1012.9
20260504195404 65 203 2.0 6.0 0.00 0.00 0.00 67 1012.9
20260504194903 65 223 1.0 6.0 0.00 0.00 0.00 69 1012.9
20260504194403 64 110 0.0 5.0 0.00 0.00 0.00 71 1013.0
20260504193904 64 85 2.0 7.0 0.00 0.00 0.00 69 1013.0
20260504193402 64 169 1.0 7.0 0.00 0.00 0.00 70 1013.0
20260504192402 63 317 0.0 6.0 0.00 0.00 0.00 71 1013.1
20260504191903 63 224 3.0 7.0 0.00 0.00 0.00 71 1013.2
20260504191403 63 289 2.0 7.0 0.00 0.00 0.00 74 1013.2
20260504190903 63 179 3.0 9.0 0.00 0.00 0.00 72 1013.2
20260504190403 62 145 4.0 9.0 0.00 0.00 0.00 71 1013.4
20260504185903 63 69 3.0 7.0 0.00 0.00 0.00 70 1013.4
20260504185403 63 124 2.0 7.0 0.00 0.00 0.00 72 1013.4
20260504184903 63 323 2.0 6.0 0.00 0.00 0.00 70 1013.4
20260504184403 62 158 1.0 3.0 0.00 0.00 0.00 74 1013.5
20260504183903 61 287 1.0 5.0 0.00 0.00 0.00 74 1013.5
20260504183403 62 143 2.0 5.0 0.00 0.00 0.00 72 1013.5
20260504182903 62 139 0.0 6.0 0.00 0.00 0.00 73 1013.4
20260504182403 62 69 3.0 6.0 0.00 0.00 0.00 72 1013.5
20260504181902 61 211 1.0 6.0 0.00 0.00 0.00 76 1013.4
20260504181403 60 144 1.0 7.0 0.00 0.00 0.00 75 1013.5
20260504180903 60 292 2.0 7.0 0.00 0.00 0.00 75 1013.5
20260504180403 60 274 2.0 7.0 0.00 0.00 0.00 77 1013.4
20260504175903 60 241 2.0 7.0 0.00 0.00 0.00 74 1013.4
20260504175403 60 315 1.0 6.0 0.00 0.00 0.00 76 1013.4
20260504174903 60 285 1.0 6.0 0.00 0.00 0.00 76 1013.5
20260504173903 59 120 2.0 6.0 0.00 0.00 0.00 77 1013.4
20260504173403 59 92 3.0 9.0 0.00 0.00 0.00 76 1013.4
20260504172902 59 83 2.0 9.0 0.00 0.00 0.00 76 1013.4
20260504172403 59 28 2.0 5.0 0.00 0.00 0.00 78 1013.4
20260504171903 59 220 2.0 6.0 0.00 0.00 0.00 76 1013.4
20260504170904 59 89 1.0 6.0 0.00 0.00 0.00 77 1013.4
20260504170403 59 118 2.0 7.0 0.00 0.00 0.00 77 1013.3
20260504160403 59 89 1.0 10.0 0.00 0.00 0.00 76 1013.2
20260504150903 60 118 1.0 7.0 0.00 0.00 0.00 76 1012.8
20260504150403 59 85 2.0 7.0 0.00 0.00 0.00 77 1012.8
20260504140403 57 116 1.0 3.0 0.00 0.00 0.00 79 1012.2
20260504130403 56 68 1.0 5.0 0.00 0.00 0.00 80 1011.1
20260504110403 60 137 1.0 8.0 0.00 0.00 0.00 73 1009.4
20260504100404 52 78 0.0 1.0 0.00 0.00 0.00 90 1008.7
20260504081903 55 78 0.0 0.0 0.00 0.00 0.00 88 1008.2
20260504081403 55 78 0.0 2.0 0.00 0.00 0.00 88 1008.2
20260504080903 55 78 0.0 2.0 0.00 0.00 0.00 88 1008.1
20260504080405 55 78 1.0 1.0 0.00 0.00 0.00 87 1008.2
20260504070404 58 0 0.0 2.0 0.00 0.00 0.00 84 1007.7
20260504050404 64 122 0.0 0.0 0.00 0.00 0.00 74 1007.0
20260504045403 64 159 0.0 0.0 0.00 0.00 0.00 73 1007.0
20260504043904 66 120 0.0 0.0 0.00 0.00 0.00 71 1007.0
20260504043404 66 114 0.0 0.0 0.00 0.00 0.00 71 1006.9
20260504042403 66 128 0.0 1.0 0.00 0.00 0.00 69 1006.9
20260504041904 67 162 0.0 1.0 0.00 0.00 0.00 68 1006.8
20260504041404 67 162 1.0 1.0 0.00 0.00 0.00 69 1006.8
20260504040903 68 285 0.0 0.0 0.00 0.00 0.00 68 1006.8
20260504040403 69 0 0.0 0.0 0.00 0.00 0.00 67 1006.7
20260504035903 69 325 0.0 0.0 0.00 0.00 0.00 67 1006.7
20260504035403 70 248 0.0 0.0 0.00 0.00 0.00 66 1006.6
20260504034904 70 240 0.0 0.0 0.00 0.00 0.00 64 1006.6
20260504034403 71 217 0.0 0.0 0.00 0.00 0.00 64 1006.5
20260504033904 72 217 0.0 0.0 0.00 0.00 0.00 63 1006.5
20260504032903 73 217 0.0 0.0 0.00 0.00 0.00 59 1006.4
20260504032403 74 249 0.0 0.0 0.00 0.00 0.00 55 1006.3
20260504031904 75 250 0.0 0.0 0.00 0.00 0.00 54 1006.3
20260504031403 76 247 0.0 0.0 0.00 0.00 0.00 52 1006.2
20260504030403 77 253 0.0 0.0 0.00 0.00 0.00 51 1006.2
20260504025904 77 251 0.0 0.0 0.00 0.00 0.00 48 1006.2
20260504025403 78 248 0.0 1.0 0.00 0.00 0.00 46 1006.1
20260504024904 78 247 0.0 1.0 0.00 0.00 0.00 47 1006.1
20260504024403 79 244 0.0 0.0 0.00 0.00 0.00 45 1006.1
20260504023403 80 131 0.0 0.0 0.00 0.00 0.00 44 1006.1
20260504022904 81 0 0.0 0.0 0.00 0.00 0.00 42 1006.1
20260504022403 81 0 0.0 0.0 0.00 0.00 0.00 42 1006.0
20260504021903 82 0 0.0 0.0 0.00 0.00 0.00 42 1006.1
20260504021403 83 277 0.0 0.0 0.00 0.00 0.00 41 1006.1
20260504020904 83 267 0.0 2.0 0.00 0.00 0.00 40 1006.1
20260504020403 84 267 0.0 3.0 0.00 0.00 0.00 37 1006.1
20260504015903 85 210 0.0 3.0 0.00 0.00 0.00 39 1006.1
20260504015403 85 211 0.0 2.0 0.00 0.00 0.00 38 1006.1
20260504014904 86 207 0.0 1.0 0.00 0.00 0.00 38 1006.2
20260504014403 86 213 0.0 2.0 0.00 0.00 0.00 36 1006.2
20260504013903 86 207 0.0 3.0 0.00 0.00 0.00 33 1006.2
20260504013403 87 65 0.0 3.0 0.00 0.00 0.00 34 1006.3
20260504012903 88 231 1.0 5.0 0.00 0.00 0.00 31 1006.3
20260504012403 88 222 0.0 5.0 0.00 0.00 0.00 34 1006.4
20260504011904 89 230 1.0 5.0 0.00 0.00 0.00 32 1006.4
20260504011403 89 221 0.0 3.0 0.00 0.00 0.00 33 1006.4
20260504010403 89 233 1.0 3.0 0.00 0.00 0.00 30 1006.6
20260504005903 89 73 0.0 3.0 0.00 0.00 0.00 34 1006.5
20260504005403 89 266 1.0 3.0 0.00 0.00 0.00 31 1006.6
20260504004904 89 231 1.0 3.0 0.00 0.00 0.00 33 1006.7
20260504004403 89 277 0.0 6.0 0.00 0.00 0.00 34 1006.6
20260504003903 90 231 0.0 6.0 0.00 0.00 0.00 34 1006.7
20260504003403 90 229 1.0 5.0 0.00 0.00 0.00 34 1006.7
20260504002904 90 233 1.0 5.0 0.00 0.00 0.00 33 1006.8
20260504002403 90 4 2.0 5.0 0.00 0.00 0.00 35 1006.7
20260504001903 90 220 1.0 5.0 0.00 0.00 0.00 32 1006.8
20260504001403 90 242 1.0 5.0 0.00 0.00 0.00 31 1006.8
20260504000903 90 249 1.0 5.0 0.00 0.00 0.00 32 1006.8
20260504000403 90 250 3.0 5.0 0.00 0.00 0.00 30 1006.8
20260503235903 90 233 1.0 5.0 0.00 0.00 0.00 31 1006.8
20260503235404 90 269 1.0 6.0 0.00 0.00 0.00 32 1006.9
20260503234904 90 244 1.0 6.0 0.00 0.00 0.00 31 1007.0
20260503234403 90 227 3.0 6.0 0.00 0.00 0.00 28 1007.0
20260503233904 90 46 1.0 5.0 0.00 0.00 0.00 30 1007.1
20260503233403 90 250 1.0 9.0 0.00 0.00 0.00 29 1007.1
20260503232403 90 229 2.0 7.0 0.00 0.00 0.00 30 1007.3
20260503231903 90 270 2.0 6.0 0.00 0.00 0.00 28 1007.3
20260503231403 91 197 2.0 6.0 0.00 0.00 0.00 28 1007.3
20260503230903 91 190 1.0 5.0 0.00 0.00 0.00 31 1007.5
20260503225905 91 57 1.0 5.0 0.00 0.00 0.00 35 1007.6